Location: Newark
(58.8333°N, 23.5833°E)
Time: 23:01:24
(UTC+00:00)

Explorer 7 - Pass Details

Date: 17 November 2019
Orbit: 485 x 680 km, 50.3° (Epoch: 11 December)

Event Time Altitude Azimuth Distance (km) Brightness Sun altitude
Rises 03:58:24 0° 264° (W) 2,764 - -17.6°
Reaches altitude 10° 04:01:19 10° 245° (WSW) 1,823 - -17.3°
Exits shadow 04:03:10 16° 219° (SW) 1,446 8.7 -17.0°
Maximum altitude 04:04:01 17° 204° (SSW) 1,391 8.7 -16.9°
Drops below altitude 10° 04:06:38 10° 162° (SSE) 1,749 9.7 -16.6°
Sets 04:09:21 0° 142° (SE) 2,602 11.0 -16.2°
